KS-1Q

operational
NORAD ID: 41847 Int'l Des: 2016-066 Owner: KCHT Country: CN
LEORETROGRADESSO

About KS-1Q

Description loading...

Live Position

Loading 3D Globe...

Upcoming Passes

Altitude History

Altitude vs Time

uPlot chart will show altitude changes over time

Two-Line Element Set

1 41847U 16066G 26022.50005573 .00003021 00000-0 43425-3 0 9997
2 41847 98.3968 99.8392 0342805 211.2838 146.7550 14.44274259483764
Epoch: Jan 22, 2026 • Age: 16 hours

Current Status

Altitude 793.6 km
Velocity 7.44 km/s
Sub-Earth Point -51.42°S, 77.1°W
Launch Date Nov 9, 2016
Age 9.2 years
Type other

Technical Details

Classification Payload
Mass 1.00 kg
Dry Mass 1.00 kg
Total Mass 503.00 kg
Length 1.50 m
Diameter 1.50 m
Span 1.50 m
Shape Cyl
Manufacturer KCHT
Bus Type KS-1
Phase Status Attached in Orbit
Owner/State KCHT/CN

Large Constellations

Loading constellations...